DATE/TIME(UTC),Outside Temperature (),Lat. , Long.,Direction / Angle (),Direction / Angle (),Speed (ground - true North),Speed (Apparent),Barometric Pressure (),Outside Humidity ()
Jul-21-2019 00:00:00,17.57,32.2411866,-123.4934366,328.6944279,175.2964374,16.89200864,17.70842333,1010,101000
Jul-21-2019 00:00:15,17.6,32.241125,-123.4934316,321.8934189,170.2830567,15.29805616,17.33909287,1010,101000
Jul-21-2019 00:00:30,17.67,32.2410733,-123.4934266,313.19019,168.4610509,13.99568035,17.18358531,1010,101000
Jul-21-2019 00:00:45,17.72,32.24101,-123.4934466,313.4938576,164.6909886,13.68466523,14.57883369,1010,101000
Jul-21-2019 00:01:00,17.75,32.2409583,-123.4934483,313.6943928,165.9916028,12.69330454,14.69546436,1010,101000
Jul-21-2019 00:01:15,17.72,32.2408966,-123.4934466,317.0920326,168.6272087,13.78185745,15.02591793,1010,101000
Jul-21-2019 00:01:30,17.6,32.240845,-123.49346,319.3895933,173.4687021,13.78185745,15.90064795,1010,101000
Jul-21-2019 00:01:45,17.76,32.24081,-123.4934616,316.1924888,175.3365445,11.39092873,15.4924406,1010,101000
Jul-21-2019 00:02:00,17.84,32.2407733,-123.493475,318.0889791,174.7521275,12.28509719,13.93736501,1010,101000
Jul-21-2019 00:02:15,17.8,32.2407366,-123.4934883,321.6928837,176.8778009,12.98488121,11.74082073,1010,101000
Jul-21-2019 00:02:30,17.76,32.2406666,-123.4934833,315.2929451,172.1508991,11.89632829,12.12958963,1010,101000
Jul-21-2019 00:02:45,17.73,32.24064,-123.4935033,317.3899706,171.1826005,12.28509719,13.587473,1010,101000
Jul-21-2019 00:03:00,17.77,32.240625,-123.49352,312.1932434,170.4893215,12.28509719,13.39308855,1010,101000
Jul-21-2019 00:03:15,17.83,32.2405916,-123.4935383,312.6917167,168.9251467,12.79049676,13.37365011,1010,101000
Jul-21-2019 00:03:30,17.71,32.240555,-123.493545,322.5924274,173.795288,14.28725702,15.62850972,1010,101000
Jul-21-2019 00:03:45,17.64,32.240515,-123.4935533,324.4889177,177.0611474,15.4924406,14.46220302,1010,101000
Jul-21-2019 00:04:00,17.68,32.2404716,-123.493585,319.6932609,173.4228654,13.68466523,14.7537797,1010,101000
Jul-21-2019 00:04:15,17.69,32.2404416,-123.493595,320.4896723,174.4656486,14.98704104,16.93088553,1010,101000
Jul-21-2019 00:04:30,17.7,32.24039,-123.4936083,315.9919536,166.6161268,16.28941685,18.15550756,1010,101000
Jul-21-2019 00:04:45,17.71,32.2403433,-123.4936116,311.8895758,163.9576027,17.39740821,17.14470842,1010,101000
Jul-21-2019 00:05:00,17.76,32.2402816,-123.4936083,311.9927082,167.4641044,18.58315335,19.53563715,1010,101000
Jul-21-2019 00:05:15,17.69,32.2402466,-123.4936166,312.4911815,163.9346843,20.48812095,20.5075594,1010,101000
Jul-21-2019 00:05:30,17.68,32.24022,-123.493615,314.3934013,166.9369832,18.58315335,19.7300216,1010,101000
Jul-21-2019 00:05:45,17.69,32.2402,-123.4936116,318.9942524,174.8094233,17.18358531,15.82289417,1010,101000
Jul-21-2019 00:06:00,17.65,32.24016,-123.49361,319.7906638,172.288409,16.4838013,21.55723542,1010,101000
Jul-21-2019 00:06:15,17.82,32.2400966,-123.493605,313.9923309,170.1684652,15.4924406,18.81641469,1010,101000
Jul-21-2019 00:06:30,17.8,32.24004,-123.4936,316.5935593,169.6585327,15.18142549,18.29157667,1010,101000
Jul-21-2019 00:06:45,17.78,32.2400016,-123.4935933,315.3903479,170.4492145,13.49028078,17.26133909,1010,101000
Jul-21-2019 00:07:00,17.82,32.2399466,-123.4936016,310.5946912,168.4152143,13.99568035,17.45572354,1010,101000
Jul-21-2019 00:07:15,17.86,32.2398866,-123.4935966,315.5908831,167.8479861,13.99568035,15.22030238,1010,101000
Jul-21-2019 00:07:30,17.92,32.2398266,-123.4935916,308.9904093,167.7276649,15.4924406,16.75593952,1010,101000
Jul-21-2019 00:07:45,17.98,32.2397816,-123.4935883,308.6924713,163.504966,17.18358531,16.54211663,1010,101000
Jul-21-2019 00:08:00,17.83,32.23972,-123.4936083,307.8903304,165.3498901,16.69762419,18.05831533,1010,101000
Jul-21-2019 00:08:15,17.75,32.2396716,-123.4936183,311.6947701,161.6371236,21.28509719,18.69978402,1010,101000
Jul-21-2019 00:08:30,17.99,32.23963,-123.4936083,313.3907252,163.2929716,19.98272138,20.04103672,1010,101000
Jul-21-2019 00:08:45,17.89,32.2395816,-123.493605,319.1890581,171.5321047,16.79481641,16.96976242,1010,101000
Jul-21-2019 00:09:00,17.81,32.239555,-123.49362,308.8930065,166.7650959,15.18142549,15.00647948,1010,101000
Jul-21-2019 00:09:15,17.81,32.2395133,-123.4936033,329.6913745,174.0645782,15.18142549,15.4924406,1010,101000
Jul-21-2019 00:09:30,17.77,32.2394783,-123.4935966,327.5943489,179.7712378,15.08423326,11.97408207,1010,101000
Jul-21-2019 00:09:45,17.79,32.2394366,-123.493615,318.9942524,174.4255416,15.58963283,16.73650108,1010,101000
Jul-21-2019 00:10:00,17.84,32.2393866,-123.4936366,311.8895758,168.4839692,13.49028078,15.29805616,1010,101000
Jul-21-2019 00:10:15,17.71,32.2393366,-123.493645,309.1909446,169.9278229,12.49892009,14.5399568,1010,101000
Jul-21-2019 00:10:30,17.84,32.239275,-123.4936533,300.29291,154.2574272,17.78617711,15.7062635,1010,101000
Jul-21-2019 00:10:45,17.88,32.2392333,-123.49365,301.4903918,156.8414668,17.78617711,15.66738661,1010,101000
Jul-21-2019 00:11:00,17.97,32.2391866,-123.4936666,304.9911639,149.7196014,17.59179266,16.11447084,1010,101000
Jul-21-2019 00:11:15,18.16,32.2391466,-123.4936833,298.2932873,141.6638148,16.89200864,11.17710583,1010,101000
Jul-21-2019 00:11:30,18.28,32.2391166,-123.493685,293.8929714,153.2089144,17.98056156,13.99568035,1010,101000
Jul-21-2019 00:11:45,18.19,32.23911,-123.4936733,298.0927521,151.3353424,17.49460043,13.95680346,1010,101000
Jul-21-2019 00:12:00,18.03,32.2390966,-123.493655,303.7936821,153.7933314,17.28077754,14.11231102,1010,101000
Jul-21-2019 00:12:15,18.01,32.2390616,-123.49365,305.3922344,153.3063172,16.38660907,13.23758099,1010,101000
Jul-21-2019 00:12:30,18.04,32.239025,-123.4936466,301.392989,160.0041939,15.8812095,12.96544276,1010,101000
Jul-21-2019 00:12:45,18,32.2389916,-123.4936283,300.6939805,156.703957,16.38660907,14.55939525,1010,101000
Jul-21-2019 00:13:00,18.01,32.2389566,-123.49362,306.5897162,161.9121433,14.98704104,13.15982721,1010,101000
Jul-21-2019 00:13:15,17.9,32.2389083,-123.493625,301.2898566,158.3941825,15.78401728,14.32613391,1010,101000
Jul-21-2019 00:13:30,17.89,32.2388466,-123.49363,299.8918395,157.4316134,15.58963283,12.38228942,1010,101000
Jul-21-2019 00:13:45,18.02,32.2388016,-123.493625,298.894893,152.4755284,18.99136069,17.65010799,1010,101000
Jul-21-2019 00:14:00,18.13,32.23878,-123.4936183,295.5946561,155.6153372,19.59395248,16.6587473,1010,101000
Jul-21-2019 00:14:15,18.09,32.2387433,-123.4936166,296.0931294,159.5802051,18.3887689,15.27861771,1010,101000
Jul-21-2019 00:14:30,18,32.238715,-123.4936166,294.6893828,154.4063962,18.68034557,16.19222462,1010,101000
Jul-21-2019 00:14:45,17.9,32.23868,-123.49361,299.6913043,155.6554442,19.18574514,17.00863931,1010,101000
Jul-21-2019 00:15:00,17.81,32.2386533,-123.493605,305.5927696,161.0870841,19.69114471,17.66954644,1010,101000
Jul-21-2019 00:15:15,17.95,32.2386083,-123.4936,299.8918395,155.1913484,18.29157667,14.46220302,1010,101000
Jul-21-2019 00:15:30,18.11,32.238565,-123.493595,303.6905497,154.9908132,19.98272138,16.6587473,1010,101000
Jul-21-2019 00:15:45,18.17,32.238505,-123.4935983,303.9942174,142.0534261,19.08855292,13.78185745,1010,101000
Jul-21-2019 00:16:00,18.3,32.2384583,-123.49359,294.9930504,157.2711852,18.79697624,17.00863931,1010,101000
Jul-21-2019 00:16:15,18.26,32.2384283,-123.4935916,300.1897776,157.7066331,19.49676026,17.4362851,1010,101000
Jul-21-2019 00:16:30,18.02,32.2384116,-123.49357,304.6932259,160.8006052,21.18790497,18.13606911,1010,101000
Jul-21-2019 00:16:45,17.93,32.2383816,-123.4935666,306.1943753,160.0041939,20.2937365,15.00647948,1010,101000
Jul-21-2019 00:17:00,18.08,32.2383333,-123.4935333,308.193998,161.3048081,19.59395248,16.2699784,1010,101000
Jul-21-2019 00:17:15,17.9,32.2383166,-123.4935316,304.7906287,167.4927523,18.89416847,17.2224622,1010,101000
Jul-21-2019 00:17:30,17.66,32.2383216,-123.4935316,308.0908656,168.3235411,15.8812095,17.0475162,1010,101000
Jul-21-2019 00:17:45,17.53,32.2383116,-123.4935266,318.89112,170.78153,15.8812095,18.23326134,1010,101000
Jul-21-2019 00:18:00,17.54,32.2382816,-123.4935166,314.7944718,163.6940421,15.8812095,17.26133909,1010,101000
Jul-21-2019 00:18:15,17.69,32.2382316,-123.4935183,310.5946912,166.925524,15.29805616,16.61987041,1010,101000
Jul-21-2019 00:18:30,17.8,32.2382,-123.49351,311.5916377,157.1222162,17.28077754,14.61771058,1010,101000
Jul-21-2019 00:18:45,17.98,32.2381383,-123.49353,310.5946912,152.3494777,18.19438445,16.54211663,1010,101000
Jul-21-2019 00:19:00,18.16,32.2381016,-123.4935583,306.1943753,138.1802315,16.4838013,11.37149028,1010,101000
Jul-21-2019 00:19:15,18.12,32.2380616,-123.4935883,306.9907866,133.7398085,16.98920086,11.5075594,1010,101000
Jul-21-2019 00:19:30,17.93,32.2380133,-123.4936183,314.2902689,121.3238131,17.78617711,11.13822894,1010,101000
Jul-21-2019 00:19:45,17.87,32.2379816,-123.4936433,324.7925853,95.21985597,17.68898488,12.2462203,1010,101000
Jul-21-2019 00:20:00,17.9,32.237945,-123.493685,316.393024,89.04337094,15.68682505,10.03023758,1010,101000
Jul-21-2019 00:20:15,17.96,32.23791,-123.4937016,324.5920501,84.52273394,14.88984881,7.561555076,1010,101000
Jul-21-2019 00:20:30,17.89,32.2378433,-123.4937283,336.6929187,72.62240053,15.8812095,10.14686825,1010,101000
Jul-21-2019 00:20:45,17.81,32.237795,-123.49376,341.3911727,67.05325076,18.09719222,13.64578834,1010,101000
Jul-21-2019 00:21:00,17.75,32.2377533,-123.4938333,341.8896459,46.6960603,16.28941685,11.77969762,1010,101000
Jul-21-2019 00:21:15,17.7,32.237755,-123.4939733,339.689488,39.51116955,14.98704104,14.52051836,1011,101100
Jul-21-2019 00:21:30,17.75,32.237775,-123.4940533,356.889681,4.818575057,15.39524838,8.552915767,1011,101100
Jul-21-2019 00:21:45,17.76,32.2377883,-123.4941033,2.194428355,344.1241813,12.28509719,8.611231102,1011,101100
Jul-21-2019 00:22:00,17.68,32.2378,-123.49412,356.1906725,333.3754931,14.79265659,12.96544276,1011,101100
Jul-21-2019 00:22:15,17.51,32.2378383,-123.494115,357.0902162,333.9770988,13.89848812,9.136069114,1011,101100
Jul-21-2019 00:22:30,17.56,32.2378733,-123.4941083,355.9901373,327.0557686,12.98488121,11.74082073,1011,101100
Jul-21-2019 00:22:45,17.58,32.2379066,-123.4941266,4.096648235,339.4087387,13.08207343,7.406047516,1011,101100
Jul-21-2019 00:23:00,17.69,32.2379666,-123.4941583,8.199026048,2.54393261,12.79049676,6.3174946,1011,101100
Jul-21-2019 00:23:15,17.78,32.237995,-123.49418,6.296806168,26.21281913,14.79265659,11.19654428,1011,101100
Jul-21-2019 00:23:30,17.7,32.238005,-123.4942116,1.495419845,26.61388958,14.38444924,6.47300216,1011,101100
Jul-21-2019 00:23:45,17.68,32.238035,-123.4942516,354.2884526,20.94733699,17.08639309,8.747300216,1010,101000
Jul-21-2019 00:24:00,17.63,32.2380866,-123.4943083,5.196727202,17.21738174,16.4838013,7.075593952,1010,101000
Jul-21-2019 00:24:15,17.63,32.238185,-123.4943783,5.998868115,10.47939807,15.58963283,8.514038877,1011,101100
Jul-21-2019 00:24:30,17.74,32.2382616,-123.4944583,0.69900851,359.3820474,14.88984881,13.45140389,1011,101100
Jul-21-2019 00:24:45,17.76,32.2383333,-123.494525,352.6899004,352.3002891,14.98704104,11.52699784,1011,101100
Jul-21-2019 00:25:00,17.68,32.2383866,-123.4945733,358.6887685,339.2425809,14.48164147,12.18790497,1011,101100
Jul-21-2019 00:25:15,17.7,32.23846,-123.494605,3.397639725,350.5470382,13.49028078,7.73650108,1011,101100
Jul-21-2019 00:25:30,17.79,32.238515,-123.49463,2.09702553,354.8728696,13.08207343,11.81857451,1011,101100
Jul-21-2019 00:25:45,17.77,32.238555,-123.4946616,11.39613055,359.9836531,14.79265659,10.84665227,1011,101100
Jul-21-2019 00:26:00,17.66,32.23858,-123.4947033,6.697876625,4.325831353,15.78401728,13.31533477,1011,101100
Jul-21-2019 00:26:15,17.64,32.23859,-123.4947466,356.7922782,8.136000691,17.49460043,10.55507559,1011,101100
Jul-21-2019 00:26:30,17.66,32.2386183,-123.4947816,352.7930328,18.65550581,15.8812095,8.630669546,1011,101100
Jul-21-2019 00:26:45,17.6,32.2386566,-123.4948516,358.3908304,12.29567428,15.68682505,8.591792657,1011,101100
Jul-21-2019 00:27:00,17.67,32.2387166,-123.4949333,359.8919799,358.763253,14.09287257,11.99352052,1011,101100
Jul-21-2019 00:27:15,17.7,32.238795,-123.4949883,9.499640243,358.5111516,12.38228942,10.36069114,1011,101100
Jul-21-2019 00:27:30,17.67,32.2388666,-123.4950633,3.695577779,2.06837764,13.78185745,9.816414687,1011,101100
Jul-21-2019 00:27:45,17.71,32.2389333,-123.4951183,352.3919623,1.558445203,14.59827214,10.03023758,1010,101000
Jul-21-2019 00:28:00,17.78,32.2389733,-123.49519,352.8904356,2.755926995,13.08207343,8.183585313,1010,101000
Jul-21-2019 00:28:15,17.69,32.2389633,-123.4952416,352.4893651,4.480529958,11.89632829,10.43844492,1011,101100
Jul-21-2019 00:28:30,17.72,32.2389916,-123.495295,354.391585,1.077160655,12.09071274,10.94384449,1011,101100
Jul-21-2019 00:28:45,17.73,32.2390366,-123.4953566,347.590576,0.607335263,11.89632829,8.805615551,1011,101100
Jul-21-2019 00:29:00,17.75,32.2390666,-123.4954083,348.988593,1.615740982,11.07991361,9.660907127,1011,101100
Jul-21-2019 00:29:15,17.79,32.2391133,-123.4954633,342.9897249,3.638281999,10.69114471,9.719222462,1011,101100
Jul-21-2019 00:29:30,17.76,32.239175,-123.4954966,354.6895231,4.491989114,11.77969762,8.144708423,1011,101100
Jul-21-2019 00:29:45,17.82,32.2392066,-123.4955483,353.9905146,19.84725802,13.78185745,4.820734341,1011,101100
Jul-21-2019 00:30:00,17.76,32.2392633,-123.4956016,355.789602,9.889251544,14.79265659,10.26349892,1011,101100
Jul-21-2019 00:30:15,17.78,32.2392933,-123.4956566,352.2888299,354.7296301,14.48164147,10.38012959,1011,101100
Jul-21-2019 00:30:30,17.78,32.2393183,-123.4956816,0,2.263183291,14.88984881,10.43844492,1011,101100
Jul-21-2019 00:30:45,17.73,32.2393766,-123.4957216,356.9928134,10.51377554,15.78401728,10.01079914,1011,101100
Jul-21-2019 00:31:00,17.72,32.2394033,-123.4957683,358.5913657,8.124541535,18.19438445,10.14686825,1011,101100
Jul-21-2019 00:31:15,17.64,32.2394416,-123.49582,357.2907515,6.027516005,17.68898488,13.33477322,1011,101100
Jul-21-2019 00:31:30,17.67,32.239475,-123.4958833,353.3889089,2.887707287,14.19006479,12.6349892,1011,101100
Jul-21-2019 00:31:45,17.78,32.2395233,-123.49596,350.088672,358.1215403,15.08423326,13.50971922,1011,101100
Jul-21-2019 00:32:00,17.72,32.2395666,-123.4960183,357.2907515,7.517206272,17.68898488,12.34341253,1011,101100
Jul-21-2019 00:32:15,17.62,32.23963,-123.4960833,348.988593,3.701307357,17.88336933,11.66306695,1011,101100
Jul-21-2019 00:32:30,17.62,32.2396483,-123.496155,345.8888913,8.714688064,16.38660907,8.086393089,1011,101100
Jul-21-2019 00:32:45,17.68,32.2397066,-123.4962266,355.6921992,8.388102121,16.28941685,9.816414687,1011,101100
Jul-21-2019 00:33:00,17.7,32.2397466,-123.496305,349.3896635,6.692147047,15.68682505,9.602591793,1011,101100
Jul-21-2019 00:33:15,17.67,32.2397966,-123.4963783,351.5898214,7.442721759,15.58963283,9.699784017,1011,101100
Jul-21-2019 00:33:30,17.68,32.23984,-123.4964433,355.491664,0.068754935,13.89848812,10.53563715,1011,101100
Jul-21-2019 00:33:45,17.77,32.2398833,-123.4965033,3.397639725,7.224997797,13.78185745,7.095032397,1011,101100
Jul-21-2019 00:34:00,17.81,32.239915,-123.4965733,359.8919799,3.735684824,13.78185745,6.900647948,1011,101100
Jul-21-2019 00:34:15,17.75,32.2399466,-123.4966733,346.0894266,9.660068426,14.48164147,5.112311015,1011,101100
Jul-21-2019 00:34:30,17.66,32.2399866,-123.49673,356.2938049,13.72233919,15.18142549,8.125269978,1011,101100
Jul-21-2019 00:34:45,17.6,32.24,-123.4967916,0.19480565,14.20362374,15.68682505,9.03887689,1011,101100
Jul-21-2019 00:35:00,17.73,32.2400216,-123.4968633,344.5940067,4.142484859,14.48164147,10.18574514,1011,101100
Jul-21-2019 00:35:15,17.8,32.24007,-123.496915,346.490497,3.695577779,14.48164147,10.04967603,1011,101100
Jul-21-2019 00:35:30,17.72,32.2401216,-123.4969666,354.7926555,11.27580941,13.29589633,6.278617711,1011,101100
Jul-21-2019 00:35:45,17.78,32.2401766,-123.4970216,355.5890668,13.44158987,15.78401728,10.36069114,1011,101100
Jul-21-2019 00:36:00,17.64,32.24022,-123.4970916,355.6921992,24.70594013,16.79481641,11.33261339,1011,101100
Jul-21-2019 00:36:15,17.72,32.2402816,-123.4971633,353.7899793,22.59172586,16.58099352,12.01295896,1011,101100
Jul-21-2019 00:36:30,17.66,32.2403016,-123.4972333,351.9908919,20.15092565,16.69762419,10.92440605,1011,101100
Jul-21-2019 00:36:45,17.64,32.2403666,-123.497305,0.297938053,18.15130295,15.8812095,9.563714903,1011,101100
Jul-21-2019 00:37:00,17.68,32.2404266,-123.4973783,348.2895845,14.11195049,16.98920086,9.952483801,1011,101100
Jul-21-2019 00:37:15,17.68,32.2404583,-123.4974516,350.2892072,17.2288409,18.48596112,10.67170626,1010,101000
Jul-21-2019 00:37:30,17.68,32.2404733,-123.4975016,347.888514,12.59934191,18.68034557,9.835853132,1010,101000
Jul-21-2019 00:37:45,17.71,32.2405316,-123.4975783,357.2907515,23.60013158,17.98056156,8.630669546,1010,101000
Jul-21-2019 00:38:00,17.73,32.2405433,-123.4976533,353.0909708,21.50310605,18.19438445,10.12742981,1010,101000
Jul-21-2019 00:38:15,17.76,32.2405266,-123.497735,348.7937874,25.61121344,17.39740821,12.03239741,1011,101100
Jul-21-2019 00:38:30,17.83,32.240555,-123.497815,353.8931117,21.6979117,16.58099352,11.39092873,1011,101100
Jul-21-2019 00:38:45,17.77,32.24057,-123.4979133,2.09702553,21.5947793,17.98056156,11.70194384,1010,101000
Jul-21-2019 00:39:00,17.77,32.2406,-123.49798,354.2884526,18.74717906,15.8812095,8.92224622,1010,101000
Jul-21-2019 00:39:15,17.72,32.2406016,-123.498055,349.2922606,17.4637536,17.98056156,8.144708423,1010,101000
Jul-21-2019 00:39:30,17.72,32.24061,-123.4981316,348.5932521,19.87590591,18.19438445,7.269978402,1011,101100
Jul-21-2019 00:39:45,17.78,32.2406466,-123.498215,348.8911902,18.35183818,17.28077754,8.786177106,1011,101100
Jul-21-2019 00:40:00,17.73,32.240685,-123.4982866,349.0917254,0.383881723,14.98704104,11.09935205,1011,101100
Jul-21-2019 00:40:15,17.76,32.2407083,-123.498355,353.5894441,347.5103619,14.69546436,8.494600432,1011,101100
Jul-21-2019 00:40:30,17.78,32.2407616,-123.4984133,353.5894441,359.4049657,16.79481641,14.13174946,1011,101100
Jul-21-2019 00:40:45,17.77,32.2408216,-123.4984716,355.6921992,5.735307529,15.68682505,11.33261339,1011,101100
Jul-21-2019 00:41:00,17.72,32.2409033,-123.4985483,348.8911902,5.752496263,17.68898488,12.77105832,1011,101100
Jul-21-2019 00:41:15,17.82,32.24097,-123.4986366,351.7903566,0.807870491,15.68682505,14.03455724,1010,101000
Jul-21-2019 00:41:30,17.78,32.2410633,-123.4987083,346.2899618,2.142862154,16.89200864,15.90064795,1010,101000
Jul-21-2019 00:41:45,17.7,32.2411716,-123.4988066,345.1898828,9.224620502,15.78401728,8.747300216,1010,101000
Jul-21-2019 00:42:00,17.7,32.2412966,-123.4989116,350.7934101,3.025217158,17.39740821,14.24838013,1010,101000
Jul-21-2019 00:42:15,17.61,32.2414566,-123.4990316,346.192559,2.498095987,17.49460043,13.17926566,1011,101100
Jul-21-2019 00:42:30,17.65,32.2416083,-123.4991283,350.088672,3.185645341,16.28941685,14.98704104,1010,101000
Jul-21-2019 00:42:45,17.7,32.2417216,-123.4992416,357.6918219,0.47555497,14.48164147,12.40172786,1010,101000
Jul-21-2019 00:43:00,17.8,32.241835,-123.499365,0.097402825,6.623392112,16.19222462,13.72354212,1010,101000
Jul-21-2019 00:43:15,17.7,32.241955,-123.4994833,355.6921992,8.66885144,16.38660907,12.90712743,1011,101100
Jul-21-2019 00:43:30,17.68,32.2420983,-123.4995983,352.2888299,10.70858119,16.38660907,10.08855292,1010,101000
Jul-21-2019 00:43:45,17.68,32.24224,-123.4997066,349.4927959,7.368237245,15.78401728,9.136069114,1011,101100
Jul-21-2019 00:44:00,17.66,32.2423733,-123.4998166,358.0928924,4.365938399,14.88984881,11.17710583,1011,101100
Jul-21-2019 00:44:15,17.72,32.2424816,-123.4999433,359.5883122,14.32967446,15.4924406,9.174946004,1010,101000
Jul-21-2019 00:44:30,17.78,32.2425933,-123.500055,351.893489,9.45380362,15.8812095,9.485961123,1010,101000
Jul-21-2019 00:44:45,17.69,32.2427,-123.5001583,357.7892247,20.24832848,14.09287257,9.349892009,1010,101000
Jul-21-2019 00:45:00,17.65,32.2427966,-123.500265,0.996946564,12.3185926,15.58963283,10.67170626,1010,101000
Jul-21-2019 00:45:15,17.68,32.242935,-123.50033,8.399561277,10.74868824,14.48164147,8.475161987,1010,101000
Jul-21-2019 00:45:30,17.71,32.24301,-123.5004683,352.993568,3.07678336,15.39524838,11.00215983,1010,101000
Jul-21-2019 00:45:45,17.67,32.2431216,-123.5005766,351.2918834,10.99506009,15.18142549,10.30237581,1010,101000
Jul-21-2019 00:46:00,17.72,32.243195,-123.5006816,349.9912692,11.55082915,13.99568035,8.96112311,1010,101000
Jul-21-2019 00:46:15,17.85,32.2433216,-123.500755,341.0932346,0.95110994,12.79049676,9.563714903,1010,101000
Jul-21-2019 00:46:30,17.75,32.2433966,-123.5008466,347.590576,7.666175299,13.78185745,8.377969762,1010,101000
Jul-21-2019 00:46:45,17.68,32.243485,-123.5009566,350.088672,26.40762478,17.18358531,11.41036717,1010,101000
Jul-21-2019 00:47:00,17.79,32.2435733,-123.5010466,340.9901022,359.3247516,13.68466523,13.12095032,1010,101000
Jul-21-2019 00:47:15,17.86,32.2436733,-123.5011133,347.1895055,355.709388,13.78185745,11.48812095,1011,101100
Jul-21-2019 00:47:30,17.76,32.2437766,-123.501175,344.3934715,353.8587343,13.89848812,11.17710583,1010,101000
Jul-21-2019 00:47:45,17.79,32.243855,-123.50125,347.4931732,359.5080981,13.49028078,12.69330454,1010,101000
Jul-21-2019 00:48:00,17.82,32.2439116,-123.5013083,348.2895845,359.1872418,14.28725702,13.74298056,1010,101000
Jul-21-2019 00:48:15,17.78,32.24398,-123.5013733,340.1936909,357.98976,14.19006479,13.49028078,1010,101000
Jul-21-2019 00:48:30,17.73,32.2440216,-123.5014383,344.5940067,355.0504865,14.19006479,10.08855292,1010,101000
Jul-21-2019 00:48:45,17.72,32.2440866,-123.5015033,351.0913481,2.177239621,16.38660907,11.42980562,1010,101000
Jul-21-2019 00:49:00,17.67,32.244105,-123.5016266,347.2926379,7.912547151,16.19222462,9.019438445,1010,101000
Jul-21-2019 00:49:15,17.65,32.24417,-123.5016916,344.0898039,1.610011404,16.69762419,10.01079914,1010,101000
Jul-21-2019 00:49:30,17.68,32.2442233,-123.501805,340.3942261,4.675335608,18.89416847,14.79265659,1010,101000
Jul-21-2019 00:49:45,17.62,32.2443016,-123.5018816,345.2930152,359.2101601,18.68034557,14.7537797,1010,101000
Jul-21-2019 00:50:00,17.66,32.2443966,-123.5019816,346.8915675,3.901842585,17.88336933,13.04319654,1010,101000
Jul-21-2019 00:50:15,17.66,32.2444966,-123.5020583,357.8923572,9.831955764,18.19438445,12.6349892,1010,101000
Jul-21-2019 00:50:30,17.67,32.2445783,-123.5021433,355.1937259,12.19827146,16.69762419,10.38012959,1011,101100
Jul-21-2019 00:50:45,17.7,32.244645,-123.5022383,357.1933486,20.64939894,16.69762419,9.835853132,1011,101100
Jul-21-2019 00:51:00,17.7,32.244715,-123.5023083,1.695955074,27.96606998,17.28077754,17.2224622,1010,101000
Jul-21-2019 00:51:15,17.72,32.2447433,-123.5024,357.98976,15.75060979,17.49460043,9.485961123,1010,101000
Jul-21-2019 00:51:30,17.7,32.244775,-123.502485,357.0902162,30.62459415,16.0950324,15.18142549,1010,101000
Jul-21-2019 00:51:45,17.68,32.2447983,-123.502565,349.7907339,21.84115115,18.09719222,12.20734341,1010,101000
Jul-21-2019 00:52:00,17.65,32.2448233,-123.502635,3.197104497,25.74872331,16.79481641,14.71490281,1010,101000
Jul-21-2019 00:52:15,17.66,32.2448166,-123.50275,353.9905146,26.99204173,18.48596112,15.84233261,1010,101000
Jul-21-2019 00:52:30,17.66,32.2448133,-123.5028716,347.0921027,26.49356845,17.88336933,13.9762419,1010,101000
Jul-21-2019 00:52:45,17.65,32.244835,-123.5029483,357.4912867,8.966789494,17.88336933,7.6587473,1010,101000
Jul-21-2019 00:53:00,17.67,32.244915,-123.5029866,5.695200484,10.90911642,18.68034557,9.524838013,1010,101000
Jul-21-2019 00:53:15,17.68,32.2449666,-123.5030583,0.996946564,20.01914536,18.19438445,13.99568035,1010,101000
Jul-21-2019 00:53:30,17.66,32.2450183,-123.5031566,10.79452486,28.92863908,17.68898488,18.23326134,1010,101000